Hourly Data Report for May 15, 2003

SHERBROOKE A
QUEBEC

45°26'00.000" N
71°41'00.000" W
241.40 m
7028124
71610
YSC

Download Data

Hourly Data (May 2003)
Hourly Data Report for May 15, 2003
TIME
LST
Temp Definition
°C
Dew Point Definition
°C
Rel Hum Definition
%
Precip. Amount Definition
mm

Wind Dir Definition
10's deg

Wind Spd Definition
km/h
Visibility Definition
km
Stn Press Definition
kPa
Hmdx Definition


Wind Chill Definition


Weather Definition


00:00 5.4 4.9 97   21 4 0.2 98.81      
01:00 4.7 4.2 97     0 0.2 98.83      
02:00 5.1 4.7 97   10 4 0.2 98.92      
03:00 5.7 5.3 97   9 4 0.2 98.98      
04:00 5.3 4.9 97   11 6 5.6 99.03      
05:00 5.5 5.1 97     0 0.8 99.13      
06:00 6.0 5.8 99     0 0.2 99.23      
07:00 7.5 6.9 96   2 4 24.1 99.32     Mainly Clear
08:00 10.6 7.5 81   5 9 24.1 99.37     Mainly Clear
09:00 13.0 6.8 66   6 13 24.1 99.41     Mainly Clear
10:00 15.0 6.6 57   5 11 24.1 99.45     Mainly Clear
11:00 16.0 5.1 48   5 13 24.1 99.43     Mainly Clear
12:00 15.9 4.5 47   9 22 24.1 99.43     Mainly Clear
13:00 17.8 5.1 43   6 17 24.1 99.43     Mainly Clear
14:00 18.0 4.6 41   9 22 24.1 99.45     Mainly Clear
15:00 18.2 3.8 38   10 11 24.1 99.44     Mainly Clear
16:00 17.5 3.0 38   9 11 24.1 99.47     Mainly Clear
17:00 16.7 3.5 41   12 15 15.0 99.53      
18:00 15.0 4.8 50   14 7 15.0 99.58      
19:00 12.8 4.5 57   14 7 15.0 99.65      
20:00 10.0 4.0 66   13 6 15.0 99.72      
21:00 8.8 4.4 74   7 7 15.0 99.79      
22:00 8.4 4.5 76   9 9 15.0 99.83      
23:00 7.5 4.6 82   11 9 15.0 99.87      

Notes on Data Quality.

Legend

  • E = Estimated
  • M = Missing
  • NA = Not Available*
  • [empty] = Indicates an unobserved value
Date modified: